F4JFI-13 Weather Reports


Display with metric or nautical units.
time (UTC)temp
F
wind
direction
speed
MPH
gust
MPH
rain 1hr
in
rain 24hr
in
rain mn
in
humidity
%
barometer
mb
20260504173208 62 294 0.0 0.0 0.00 0.00 0.00 84 1008.0
20260504172213 62 176 0.0 0.0 0.00 0.00 0.00 84 1008.0
20260504171208 64 186 1.0 0.0 0.00 0.00 0.00 84 1008.2
20260504170208 64 302 0.0 0.0 0.00 0.00 0.00 82 1008.2
20260504160208 64 278 1.0 0.0 0.00 0.00 0.00 78 1008.0
20260504150208 66 220 1.0 0.0 0.00 0.00 0.00 76 1007.8
20260504141209 68 164 1.0 0.0 0.00 0.00 0.00 70 1007.6
20260504140209 68 194 1.0 0.0 0.00 0.00 0.00 70 1007.6
20260504130208 70 126 1.0 0.0 0.00 0.00 0.00 66 1007.8
20260504120208 68 160 2.0 0.0 0.00 0.00 0.00 72 1008.2
20260504110207 66 178 1.0 0.0 0.00 0.00 0.00 78 1009.0
20260504100207 62 148 1.0 0.0 0.00 0.00 0.00 88 1009.4
20260504081208 58 104 0.0 0.0 0.00 0.00 0.00 94 1009.4
20260504080208 58 104 1.0 0.0 0.00 0.00 0.00 94 1009.4
20260504070208 56 112 0.0 0.0 0.00 0.00 0.00 94 1009.6
20260504060208 56 108 1.0 0.0 0.02 0.00 0.00 94 1009.2
20260504050208 56 136 0.0 0.0 0.04 0.00 0.00 96 1009.0
20260504045208 56 136 0.0 0.0 0.00 0.00 0.00 96 1009.0
20260504044208 56 112 0.0 0.0 0.00 0.00 0.00 96 1009.0
20260504043208 56 132 0.0 0.0 0.00 0.00 0.00 96 1009.0
20260504042213 56 112 0.0 0.0 0.00 0.00 0.00 96 1009.0
20260504041208 56 112 0.0 0.0 0.00 0.00 0.00 96 1009.2
20260504040208 56 112 0.0 0.0 0.00 0.00 0.00 94 1009.2
20260504035208 56 112 0.0 0.0 0.00 0.00 0.00 94 1009.2
20260504034208 56 112 0.0 0.0 0.00 0.00 0.00 94 1009.2
20260504033208 56 112 0.0 0.0 0.00 0.00 0.00 94 1009.4
20260504032213 56 112 0.0 0.0 0.00 0.00 0.00 94 1009.4
20260504031208 56 112 0.0 0.0 0.00 0.00 0.00 94 1009.4
20260504030208 56 112 0.0 0.0 0.02 0.00 0.00 94 1009.4
20260504025208 56 112 0.0 0.0 0.00 0.00 0.00 94 1009.4
20260504024207 56 112 0.0 0.0 0.00 0.00 0.00 94 1009.4
20260504023208 56 112 0.0 0.0 0.00 0.00 0.00 94 1009.4
20260504022218 56 112 0.0 0.0 0.00 0.00 0.00 94 1009.2
20260504021208 56 112 0.0 0.0 0.00 0.00 0.00 94 1009.2
20260504020208 56 112 0.0 0.0 0.04 0.00 0.00 94 1009.4
20260504015207 56 112 1.0 0.0 0.00 0.00 0.00 94 1009.4
20260504014208 56 118 1.0 0.0 0.00 0.00 0.00 94 1009.4
20260504013208 56 104 1.0 0.0 0.00 0.00 0.00 94 1009.4
20260504012217 56 118 1.0 0.0 0.00 0.00 0.00 94 1009.6
20260504011209 56 124 1.0 0.0 0.00 0.00 0.00 94 1009.6
20260504010208 56 96 1.0 0.0 0.02 0.00 0.00 94 1009.8
20260504005208 56 112 0.0 0.0 0.00 0.00 0.00 94 1009.8
20260504004208 56 190 0.0 0.0 0.00 0.00 0.00 94 1009.8
20260504003207 56 190 0.0 0.0 0.00 0.00 0.00 94 1009.8
20260504002218 56 190 0.0 0.0 0.00 0.00 0.00 94 1009.8
20260504001208 58 196 0.0 0.0 0.00 0.00 0.00 94 1010.0
20260504000208 58 196 0.0 0.0 0.04 0.00 0.00 94 1010.0
20260503235208 58 196 0.0 0.0 0.00 0.00 0.00 94 1010.2
20260503234208 58 196 0.0 0.0 0.00 0.00 0.00 94 1010.2
20260503233208 58 198 0.0 0.0 0.00 0.00 0.00 94 1010.4
20260503232218 58 198 0.0 0.0 0.00 0.00 0.00 94 1010.4
20260503231208 58 198 0.0 0.0 0.00 0.00 0.00 94 1010.6
20260503230208 58 198 0.0 0.0 0.01 0.00 0.00 94 1010.6
20260503225208 58 198 0.0 0.0 0.00 0.00 0.00 94 1010.8
20260503224208 58 198 0.0 0.0 0.00 0.00 0.00 94 1010.8
20260503223208 58 198 0.0 0.0 0.00 0.00 0.00 94 1011.0
20260503222219 58 198 0.0 0.0 0.00 0.00 0.00 94 1011.0
20260503221208 58 198 0.0 0.0 0.00 0.00 0.00 94 1011.0
20260503220208 58 198 0.0 0.0 0.15 0.00 0.00 94 1011.0
20260503215208 58 198 0.0 0.0 0.00 0.00 0.00 94 1011.0
20260503214208 58 198 0.0 0.0 0.00 0.00 0.00 94 1011.2
20260503213208 58 198 0.0 0.0 0.00 0.00 0.00 94 1011.2
20260503212217 58 72 1.0 0.0 0.00 0.00 0.00 92 1011.2
20260503211208 58 108 1.0 0.0 0.00 0.00 0.00 94 1011.2
20260503210208 58 130 0.0 0.0 0.15 0.00 0.00 92 1011.2
20260503205208 58 130 0.0 0.0 0.00 0.00 0.00 94 1011.4
20260503204208 58 124 0.0 0.0 0.00 0.00 0.00 94 1011.2
20260503203208 58 124 0.0 0.0 0.00 0.00 0.00 94 1011.0
20260503202213 58 124 0.0 0.0 0.00 0.00 0.00 92 1011.2
20260503201208 58 164 0.0 0.0 0.00 0.00 0.00 92 1011.0
20260503200208 58 164 0.0 0.0 0.15 0.00 0.00 92 1011.0
20260503195208 58 164 0.0 0.0 0.00 0.00 0.00 92 1010.8
20260503194209 58 164 0.0 0.0 0.00 0.00 0.00 92 1010.8
20260503193208 58 164 1.0 0.0 0.00 0.00 0.00 92 1010.8
20260503192208 58 194 2.0 0.0 0.00 0.00 0.00 90 1010.6
20260503191208 58 166 0.0 0.0 0.00 0.00 0.00 90 1010.4
20260503190208 60 46 0.0 0.0 0.09 0.00 0.00 90 1010.0
20260503185208 60 148 0.0 0.0 0.00 0.00 0.00 90 1010.0
20260503184208 60 148 0.0 0.0 0.00 0.00 0.00 88 1009.8
20260503183207 60 156 0.0 0.0 0.00 0.00 0.00 86 1010.0
20260503182208 60 162 0.0 0.0 0.00 0.00 0.00 84 1009.8
20260503181208 62 182 0.0 0.0 0.00 0.00 0.00 80 1009.4
20260503180208 62 182 0.0 0.0 0.00 0.00 0.00 78 1009.0
20260503175208 62 314 0.0 0.0 0.00 0.00 0.00 74 1008.8
20260503174208 64 314 0.0 0.0 0.00 0.00 0.00 70 1008.6